Simultaneous Nadir Overpasses (SNOs) Predictions

Prediction of SNOs between AQUA and METOP-C Satellite Orbit:

Table of predicted SNOs for the next 14.0 days since TLE Epoch: 1/11/2019
Index Date (AQUA) Time (AQUA) Lat,Lon (AQUA) SZA (AQUA ) Date (METOP-C) Time (METOP-C) Lat,Lon (METOP-C) SZA (METOP-C ) Distance(km) Time Diff (sec)
1 01/14/2019 12:19:15 73.79, -10.53 95.15 01/14/2019 12:18:46 73.82, -10.50 95.18 3.11 29
2 01/14/2019 13:08:42 -73.90, 156.89 84.75 01/14/2019 13:09:27 -73.90, 157.00 84.76 3.54 45
3 01/17/2019 07:03:51 -73.21,-110.49 85.99 01/17/2019 07:02:44 -73.14,-112.98 85.95 80.74 67
4 01/17/2019 07:53:30 73.79, 55.93 94.62 01/17/2019 07:53:10 73.78, 55.83 94.63 3.23 20
5 01/17/2019 08:42:57 -73.88,-136.64 85.28 01/17/2019 08:43:51 -73.87,-136.66 85.31 1.99 54
6 01/20/2019 02:38:12 -73.52, -44.68 86.23 01/20/2019 02:37:01 -73.46, -45.86 86.23 37.72 71
7 01/20/2019 03:27:45 73.78, 122.37 94.05 01/20/2019 03:27:33 73.80, 122.27 94.07 3.57 12
8 01/20/2019 04:17:12 -73.88, -70.19 85.86 01/20/2019 04:18:14 -73.89, -70.20 85.86 1.07 62
9 01/22/2019 22:12:32 -73.77, 21.20 86.58 01/22/2019 22:11:18 -73.78, 21.29 86.56 2.74 74
10 01/22/2019 23:02:01 73.84,-171.31 93.49 01/22/2019 23:01:56 73.81,-171.28 93.47 2.96 5
11 01/22/2019 23:51:26 -73.87, -3.74 86.48 01/22/2019 23:52:36 -73.90, -3.74 86.46 3.38 70
12 01/25/2019 17:46:46 -73.78, 87.64 87.24 01/25/2019 17:45:41 -73.74, 87.63 87.26 3.59 65
13 01/25/2019 18:36:15 73.85,-104.89 92.83 01/25/2019 18:36:18 73.83,-104.83 92.81 2.72 3




NCC Satellite Simultaneous Nadir Overpasses (SNOs) Prediction Service
